Date String (YYYY-MM-DD hh:mm:ss) UTC,Instrument flags,absolute air pressure of the measurement (hPa),sample flow rate (lpm),inlet stack bypass flow (lpm),air temperature of the measurement (°C),ambient temperature measured by the external sensor (°C),aerosol sample conditioner tube jacket temperature (°C),OPC LED temperature (°C),internal box temperature (°C),relative humidity of the measurement (%),span deviation,mass concentration of particles derived from Lorenz-Mie calculation of OPC scattering (μg/m³),mass concentration of particles derived from Lorenz-Mie calculation of OPC scattering (μg/m³),mass concentration of particles derived from Lorenz-Mie calculation of OPC scattering (μg/m³)
DateTimeUTC,F1_M11,P_M11,Q1_M11,Q2_M11,T1_M11,T2_M11,T3_M11,T4_M11,T5_M11,U1_M11,ZSPAN_M11,X2_M11,X0_M11,X1_M11
2024-03-12 07:00:00,SystemResetWarning,0824.2,5.00,000.00,021.7,020.8,000.0,030.3,023.5,12.6,0000.0,0003.48,0010.76,0001.43
2024-03-12 07:01:00,SystemResetWarning,0824.2,4.99,000.00,021.7,020.8,000.0,030.3,023.5,12.7,0000.0,0003.50,0010.65,0001.46
2024-03-12 07:02:00,SystemResetWarning,0824.1,4.99,000.00,021.7,020.8,000.0,030.3,023.5,12.8,0000.0,0003.50,0010.19,0001.48
2024-03-12 07:03:00,SystemResetWarning,0824.0,5.01,000.00,021.7,020.8,000.0,030.3,023.4,12.3,0000.0,0003.54,0010.25,0001.51
2024-03-12 07:04:00,SystemResetWarning,0824.0,5.01,000.00,021.7,020.8,000.0,030.3,023.4,12.1,0000.0,0003.60,0010.95,0001.51
2024-03-12 07:05:00,SystemResetWarning,0824.0,5.00,000.00,021.6,020.7,000.0,030.3,023.4,12.0,0000.0,0003.59,0011.49,0001.51
2024-03-12 07:06:00,SystemResetWarning,0824.0,5.00,000.00,021.6,020.7,000.0,030.2,023.4,12.1,0000.0,0003.63,0011.37,0001.50
2024-03-12 07:07:00,SystemResetWarning,0824.0,5.00,000.00,021.6,020.7,000.0,030.2,023.4,12.1,0000.0,0003.60,0010.68,0001.50
2024-03-12 07:08:00,SystemResetWarning,0824.0,5.00,000.00,021.6,020.7,000.0,030.2,023.4,12.0,0000.0,0003.62,0010.65,0001.50
2024-03-12 07:09:00,SystemResetWarning,0824.0,5.00,000.00,021.6,020.6,000.0,030.2,023.3,12.0,0000.0,0003.65,0010.91,0001.50
2024-03-12 07:10:00,SystemResetWarning,0824.0,5.00,000.00,021.6,020.6,000.0,030.2,023.3,12.1,0000.0,0003.59,0010.88,0001.50
2024-03-12 07:11:00,SystemResetWarning,0824.1,5.01,000.00,021.6,020.7,000.0,030.2,023.4,12.1,0000.0,0003.55,0010.77,0001.48
2024-03-12 07:12:00,SystemResetWarning,0824.1,5.01,000.00,021.6,020.7,000.0,030.2,023.4,12.1,0000.0,0003.51,0011.16,0001.45
2024-03-12 07:13:00,SystemResetWarning,0824.2,4.99,000.00,021.6,020.7,000.0,030.2,023.3,12.2,0000.0,0003.49,0011.46,0001.44
2024-03-12 07:14:00,SystemResetWarning,0824.1,5.00,000.00,021.6,020.7,000.0,030.2,023.4,12.4,0000.0,0003.50,0011.56,0001.42
2024-03-12 07:15:00,SystemResetWarning,0824.1,5.00,000.00,021.6,020.7,000.0,030.2,023.4,12.5,0000.0,0003.52,0011.42,0001.40
2024-03-12 07:16:00,SystemResetWarning,0824.1,5.00,000.00,021.6,020.8,000.0,030.1,023.4,12.4,0000.0,0003.54,0010.89,0001.40
2024-03-12 07:17:00,SystemResetWarning,0824.1,5.00,000.00,021.6,020.8,000.0,030.1,023.4,12.4,0000.0,0003.53,0011.14,0001.40
2024-03-12 07:18:00,SystemResetWarning,0824.1,5.01,000.00,021.6,020.8,000.0,030.1,023.4,12.4,0000.0,0003.54,0011.41,0001.40
2024-03-12 07:19:00,SystemResetWarning,0824.2,5.01,000.00,021.6,020.8,000.0,030.1,023.4,12.4,0000.0,0003.56,0011.89,0001.41
2024-03-12 07:20:00,SystemResetWarning,0824.2,5.01,000.00,021.6,020.8,000.0,030.1,023.4,12.3,0000.0,0003.55,0012.21,0001.40
2024-03-12 07:21:00,SystemResetWarning,0824.0,5.01,000.00,021.6,020.8,000.0,030.1,023.4,12.4,0000.0,0003.56,0012.05,0001.39
2024-03-12 07:22:00,SystemResetWarning,0823.9,5.01,000.00,021.6,020.8,000.0,030.1,023.3,12.6,0000.0,0003.57,0012.33,0001.39
2024-03-12 07:23:00,SystemResetWarning,0824.0,5.00,000.00,021.6,020.8,000.0,030.1,023.4,12.6,0000.0,0003.62,0012.39,0001.40
2024-03-12 07:24:00,SystemResetWarning,0823.9,4.99,000.00,021.5,020.7,000.0,030.1,023.3,12.1,0000.0,0003.67,0013.12,0001.39
2024-03-12 07:25:00,SystemResetWarning,0823.8,4.99,000.00,021.5,020.7,000.0,030.1,023.3,12.1,0000.0,0003.64,0012.87,0001.38
2024-03-12 07:26:00,SystemResetWarning,0823.8,5.00,000.00,021.5,020.7,000.0,030.1,023.3,12.1,0000.0,0003.55,0012.34,0001.40
2024-03-12 07:27:00,SystemResetWarning,0823.9,5.00,000.00,021.5,020.6,000.0,030.1,023.3,12.4,0000.0,0003.46,0011.89,0001.38
2024-03-12 07:28:00,SystemResetWarning,0823.9,5.02,000.00,021.5,020.6,000.0,030.1,023.2,12.5,0000.0,0003.43,0011.31,0001.37
2024-03-12 07:29:00,SystemResetWarning,0823.9,4.99,000.00,021.5,020.6,000.0,030.1,023.2,12.6,0000.0,0003.43,0011.54,0001.38
2024-03-12 07:30:00,SystemResetWarning,0824.0,4.99,000.00,021.5,020.6,000.0,030.1,023.2,12.6,0000.0,0003.40,0011.09,0001.38
2024-03-12 07:31:00,SystemResetWarning,0824.0,5.00,000.00,021.5,020.6,000.0,030.1,023.2,12.6,0000.0,0003.36,0010.44,0001.36
2024-03-12 07:32:00,SystemResetWarning,0823.9,5.00,000.00,021.4,020.6,000.0,030.0,023.2,12.6,0000.0,0003.33,0010.37,0001.35
2024-03-12 07:33:00,SystemResetWarning,0824.0,5.01,000.00,021.4,020.6,000.0,030.0,023.2,12.7,0000.0,0003.31,0010.08,0001.35
2024-03-12 07:34:00,SystemResetWarning,0824.0,5.00,000.00,021.4,020.6,000.0,030.0,023.2,12.8,0000.0,0003.28,0009.74,0001.35
2024-03-12 07:35:00,SystemResetWarning,0824.0,5.00,000.00,021.4,020.6,000.0,030.0,023.2,12.7,0000.0,0003.19,0009.64,0001.34
2024-03-12 07:36:00,SystemResetWarning,0824.0,5.00,000.00,021.4,020.6,000.0,030.0,023.2,12.7,0000.0,0003.14,0010.18,0001.34
2024-03-12 07:37:00,SystemResetWarning,0824.0,5.00,000.00,021.4,020.6,000.0,030.0,023.2,12.7,0000.0,0003.14,0010.52,0001.34
2024-03-12 07:38:00,SystemResetWarning,0824.0,5.00,000.00,021.4,020.6,000.0,030.0,023.2,12.7,0000.0,0003.18,0010.64,0001.33
2024-03-12 07:39:00,SystemResetWarning,0824.0,4.99,000.00,021.4,020.6,000.0,030.0,023.2,12.7,0000.0,0003.14,0010.85,0001.33
2024-03-12 07:40:00,SystemResetWarning,0824.1,4.99,000.00,021.4,020.6,000.0,030.0,023.2,12.7,0000.0,0003.11,0010.66,0001.33
2024-03-12 07:41:00,SystemResetWarning,0824.2,5.00,000.00,021.4,020.7,000.0,030.0,023.2,12.7,0000.0,0003.10,0010.52,0001.32
2024-03-12 07:42:00,SystemResetWarning,0824.2,5.01,000.00,021.4,020.6,000.0,030.0,023.2,12.7,0000.0,0003.09,0010.51,0001.34
2024-03-12 07:43:00,SystemResetWarning,0824.2,5.01,000.00,021.4,020.6,000.0,030.0,023.2,12.8,0000.0,0003.09,0010.55,0001.33
2024-03-12 07:44:00,SystemResetWarning,0824.3,5.00,000.00,021.4,020.5,000.0,030.0,023.2,12.9,0000.0,0003.06,0010.46,0001.33
2024-03-12 07:45:00,SystemResetWarning,0824.3,4.99,000.00,021.4,020.5,000.0,030.0,023.1,12.9,0000.0,0003.12,0010.82,0001.34
2024-03-12 07:46:00,SystemResetWarning,0824.3,4.99,000.00,021.4,020.5,000.0,029.9,023.1,12.9,0000.0,0003.14,0009.86,0001.33
2024-03-12 07:47:00,SystemResetWarning,0824.4,5.00,000.00,021.4,020.5,000.0,029.9,023.2,12.9,0000.0,0003.16,0009.06,0001.31
2024-03-12 07:48:00,SystemResetWarning,0824.3,5.00,000.00,021.4,020.6,000.0,029.9,023.2,13.0,0000.0,0003.15,0009.19,0001.30
2024-03-12 07:49:00,SystemResetWarning,0824.4,5.00,000.00,021.4,020.6,000.0,029.9,023.2,13.0,0000.0,0003.14,0009.09,0001.31
2024-03-12 07:50:00,SystemResetWarning,0824.4,5.00,000.00,021.4,020.6,000.0,029.9,023.2,13.0,0000.0,0003.20,0009.03,0001.32
2024-03-12 07:51:00,SystemResetWarning,0824.4,5.01,000.00,021.4,020.6,000.0,029.9,023.2,13.0,0000.0,0003.25,0008.74,0001.32
2024-03-12 07:52:00,SystemResetWarning,0824.4,5.00,000.00,021.4,020.7,000.0,029.9,023.2,13.0,0000.0,0003.25,0008.88,0001.33
2024-03-12 07:53:00,SystemResetWarning,0824.3,4.99,000.00,021.4,020.7,000.0,029.9,023.2,13.0,0000.0,0003.27,0010.35,0001.33
2024-03-12 07:54:00,SystemResetWarning,0824.3,4.99,000.00,021.4,020.7,000.0,029.9,023.2,13.0,0000.0,0003.23,0010.25,0001.32
2024-03-12 07:55:00,SystemResetWarning,0824.3,5.00,000.00,021.4,020.7,000.0,029.9,023.2,13.1,0000.0,0003.24,0010.62,0001.33
2024-03-12 07:56:00,SystemResetWarning,0824.2,5.01,000.00,021.4,020.7,000.0,029.9,023.2,13.0,0000.0,0003.20,0010.48,0001.30
2024-03-12 07:57:00,SystemResetWarning,0824.2,5.01,000.00,021.4,020.7,000.0,029.9,023.2,12.9,0000.0,0003.18,0010.35,0001.31
2024-03-12 07:58:00,SystemResetWarning,0824.2,5.01,000.00,021.4,020.7,000.0,029.9,023.2,12.9,0000.0,0003.19,0010.48,0001.32
2024-03-12 07:59:00,SystemResetWarning,0824.3,5.00,000.00,021.4,020.7,000.0,029.9,023.2,13.0,0000.0,0003.17,0009.73,0001.32
